Powrót do katalogu

STARLINK-35773

AktywnyŁącznośćVLEO
NORAD 67042·PAYLOAD·🇺🇸 United States

Wystrzelony Dec 11, 2025 z Cape Canaveral Space Force Station

Loading…

Następne Przeloty (najbliższe 24 godziny)

TLE

ŚwieżeSource: CelesTrak SupGP

Epoka: Sep 14, 2026, 22:39 UTC

1 67042C 25294N   26257.94423611  .00049711  00000+0  17978-2 0  2575
2 67042  43.0043  49.2914 0002007 283.6201  52.2817 15.27602072    13

Śledź STARLINK-35773 w czasie rzeczywistym z AllMySat

Download on the App Store